Change the Weather History Date:

Monday, December 23, 2013

  Actual Average (KRDU) Record (KRDU)
Temperature  
Mean Temperature 60 °F 42 °F  
Max Temperature 69 °F 52 °F 76 °F (1990)
Min Temperature 50 °F 32 °F 10 °F (1989)
Degree Days  
Heating Degree Days 6 23  
Month to date heating degree days 478  
Since 1 July heating degree days 1059  
Cooling Degree Days 0 0  
Month to date cooling degree days 0  
Year to date cooling degree days 1728  
Growing Degree Days 10 (Base 50)    
Moisture  
Dew Point 60 °F    
Average Humidity 86    
Maximum Humidity 94    
Minimum Humidity 78    
Precipitation  
Precipitation 1.20 in 0.11 in 2.16 in (1907)
Month to date precipitation 2.28  
Year to date precipitation 42.55  
Snow  
Snow 0.00 in 0.00 in 2.60 in (1993)
Month to date snowfall 0.3  
Since 1 July snowfall 0.4  
Snow Depth -    
Sea Level Pressure  
Sea Level Pressure 30.07 in    
Wind  
Wind Speed 5 mph (SW)    
Max Wind Speed 13 mph    
Max Gust Speed 22 mph    
Visibility 8 miles    
Events Rain    
T = Trace of Precipitation, MM = Missing Value Source: NWS Daily Summary

Daily Weather History Graph

Daily Weather History Graph

Search for Another Location

Airport or City:

Trip Planner

Search our weather history database for the weather conditions in past years. The results will help you decide how hot, cold, wet, or windy it might be!

Date:

Astronomy

Dec. 23, 2013 Rise Set
Actual Time 7:21 AM EST 5:03 PM EST
Civil Twilight 6:52 AM EST 5:32 PM EST
Nautical Twilight 6:20 AM EST 6:04 PM EST
Astronomical Twilight 5:49 AM EST 6:36 PM EST
Moon 11:01 PM EST (12/23) 10:55 AM EST (12/23)
Length of Visible Light 10h 40m
Length of Day
9h 42m
Waning Gibbous, 68% of the Moon is Illuminated
Dec 23
Waning Gibbous
Dec 25
Last Quarter
Jan 1
New
Jan 7
First Quarter
Jan 15
Full

Hourly Weather History & Observations

Time (EST) Temp. Dew Point Humidity Pressure Visibility Wind Dir Wind Speed Gust Speed Precip Events Conditions
12:15 AM 69.8 °F 64.4 °F 83% 30.07 in 7.0 mi South 8.1 mph - N/A   Scattered Clouds
12:35 AM 69.8 °F 64.4 °F 83% 30.06 in 7.0 mi South 9.2 mph - N/A   Mostly Cloudy
12:55 AM 69.8 °F 64.4 °F 83% 30.06 in 7.0 mi South 10.4 mph - N/A   Mostly Cloudy
1:15 AM 69.8 °F 64.4 °F 83% 30.05 in 7.0 mi South 11.5 mph - N/A   Mostly Cloudy
1:35 AM 69.8 °F 64.4 °F 83% 30.06 in 7.0 mi South 11.5 mph 16.1 mph N/A   Mostly Cloudy
1:55 AM 69.8 °F 66.2 °F 88% 30.08 in 4.0 mi SSW 6.9 mph - 0.08 in Rain Heavy Rain
2:15 AM 69.8 °F 66.2 °F 88% 30.08 in 7.0 mi SSW 8.1 mph 16.1 mph 0.05 in Rain Light Rain
2:35 AM 69.8 °F 66.2 °F 88% 30.07 in 7.0 mi South 3.5 mph - 0.05 in   Light Drizzle
2:55 AM 69.8 °F 66.2 °F 88% 30.06 in 7.0 mi Calm Calm - 0.05 in Rain Light Rain
3:15 AM 69.8 °F 66.2 °F 88% 30.06 in 7.0 mi SSW 4.6 mph - 0.01 in Rain Light Rain
3:35 AM 69.8 °F 66.2 °F 88% 30.07 in 5.0 mi Calm Calm - 0.03 in Rain Rain
3:55 AM 68.0 °F 64.4 °F 88% 30.08 in 2.5 mi Calm Calm - 0.16 in Rain Heavy Rain
4:15 AM 68.0 °F 64.4 °F 88% 30.08 in 7.0 mi SSW 4.6 mph - 0.13 in Rain Light Rain
4:35 AM 68.0 °F 64.4 °F 88% 30.06 in 7.0 mi Calm Calm - 0.15 in Rain Rain
4:55 AM 68.0 °F 64.4 °F 88% 30.06 in 7.0 mi SSW 3.5 mph - 0.16 in Rain Light Rain
5:15 AM 68.0 °F 64.4 °F 88% 30.05 in 10.0 mi Calm Calm - 0.01 in   Overcast
5:35 AM 68.0 °F 64.4 °F 88% 30.05 in 7.0 mi Calm Calm - 0.02 in Rain Light Rain
5:55 AM 68.0 °F 64.4 °F 88% 30.04 in 10.0 mi Calm Calm - 0.02 in   Overcast
6:15 AM 68.0 °F 64.4 °F 88% 30.04 in 10.0 mi Calm Calm - N/A   Overcast
6:35 AM 68.0 °F 64.4 °F 88% 30.04 in 10.0 mi Calm Calm - 0.01 in   Overcast
6:55 AM 68.0 °F 64.4 °F 88% 30.05 in 7.0 mi Calm Calm - 0.02 in Rain Light Rain
7:15 AM 68.0 °F 64.4 °F 88% 30.05 in 10.0 mi Calm Calm - N/A   Overcast
7:35 AM 68.0 °F 64.4 °F 88% 30.04 in 7.0 mi South 5.8 mph - N/A   Overcast
7:55 AM 69.8 °F 66.2 °F 88% 30.04 in 7.0 mi South 8.1 mph - N/A   Overcast
8:15 AM 69.8 °F 68.0 °F 94% 30.05 in 7.0 mi South 6.9 mph - N/A   Overcast
8:35 AM 69.8 °F 66.2 °F 88% 30.07 in 2.0 mi West 9.2 mph - 0.07 in Rain Rain
8:55 AM 69.8 °F 64.4 °F 83% 30.08 in 3.0 mi SW 5.8 mph - 0.17 in Rain Heavy Rain
9:15 AM 68.0 °F 64.4 °F 88% 30.07 in 2.0 mi SSW 4.6 mph - 0.16 in Rain Rain
9:35 AM 68.0 °F 64.4 °F 88% 30.07 in 10.0 mi Calm Calm - 0.17 in   Overcast
9:55 AM 68.0 °F 64.4 °F 88% 30.07 in 10.0 mi Calm Calm - 0.18 in   Overcast
10:15 AM 68.0 °F 64.4 °F 88% 30.06 in 4.0 mi SSW 6.9 mph - 0.01 in Rain Rain
10:35 AM 68.0 °F 64.4 °F 88% 30.07 in 10.0 mi South 6.9 mph - 0.01 in   Overcast
10:55 AM 68.0 °F 64.4 °F 88% 30.07 in 7.0 mi SSW 4.6 mph - 0.01 in   Overcast
11:15 AM 69.8 °F 64.4 °F 83% 30.06 in 10.0 mi SSW 5.8 mph - N/A   Overcast
11:35 AM 69.8 °F 64.4 °F 83% 30.06 in 10.0 mi SW 6.9 mph - N/A   Overcast
11:55 AM 69.8 °F 64.4 °F 83% 30.05 in 10.0 mi SSW 4.6 mph - N/A   Overcast
12:15 PM 69.8 °F 62.6 °F 78% 30.03 in 10.0 mi SSW 3.5 mph - N/A   Overcast
12:35 PM 69.8 °F 64.4 °F 83% 30.03 in 10.0 mi SSW 4.6 mph - N/A   Overcast
12:55 PM 69.8 °F 64.4 °F 83% 30.02 in 7.0 mi SSW 3.5 mph - N/A   Overcast
1:15 PM 69.8 °F 62.6 °F 78% 30.03 in 10.0 mi SSW 6.9 mph - N/A   Overcast
1:35 PM 69.8 °F 62.6 °F 78% 30.02 in 7.0 mi Calm Calm - N/A Rain Light Rain
1:55 PM 69.8 °F 64.4 °F 83% 30.02 in 10.0 mi WSW 3.5 mph - 0.01 in Rain Light Rain
2:15 PM 69.8 °F 64.4 °F 83% 30.02 in 10.0 mi SW 3.5 mph - N/A Rain Light Rain
2:35 PM 68.0 °F 64.4 °F 88% 30.02 in 5.0 mi Calm Calm - 0.02 in Rain Rain
2:55 PM 68.0 °F 64.4 °F 88% 30.02 in 4.0 mi Calm Calm - 0.06 in Rain Rain
3:15 PM 68.0 °F 64.4 °F 88% 30.02 in 4.0 mi Calm Calm - 0.04 in Rain Rain
3:35 PM 68.0 °F 64.4 °F 88% 30.03 in 7.0 mi Calm Calm - 0.06 in Rain Rain
3:55 PM 60.8 °F 57.2 °F 88% 30.04 in 3.0 mi NNW 9.2 mph 21.9 mph 0.09 in Rain Light Rain
4:15 PM 60.8 °F 57.2 °F 88% 30.05 in 7.0 mi NW 6.9 mph - N/A Rain Light Rain
4:35 PM 60.8 °F 55.4 °F 82% 30.07 in 10.0 mi Calm Calm - N/A   Overcast
4:55 PM 60.8 °F 55.4 °F 82% 30.06 in 10.0 mi Calm Calm - N/A   Overcast
5:15 PM 60.8 °F 55.4 °F 82% 30.07 in 10.0 mi NW 4.6 mph - 0.01 in   Drizzle
5:35 PM 59.0 °F 53.6 °F 82% 30.07 in 10.0 mi North 12.7 mph 19.6 mph 0.01 in Rain Rain
5:55 PM 59.0 °F 53.6 °F 82% 30.09 in 5.0 mi NW 5.8 mph - 0.01 in Rain Light Rain
6:15 PM 55.4 °F 53.6 °F 94% 30.10 in 5.0 mi NW 6.9 mph - 0.02 in Rain Rain
6:35 PM 53.6 °F 50.0 °F 88% 30.12 in 7.0 mi Calm Calm - 0.02 in   Drizzle
6:55 PM 53.6 °F 50.0 °F 88% 30.12 in 5.0 mi NW 3.5 mph - 0.03 in Rain Rain
7:15 PM 53.6 °F 50.0 °F 88% 30.12 in 7.0 mi NW 3.5 mph - N/A   Drizzle
7:35 PM 53.6 °F 50.0 °F 88% 30.12 in 10.0 mi Calm Calm - N/A   Overcast
7:55 PM 53.6 °F 50.0 °F 88% 30.13 in 10.0 mi NW 3.5 mph - N/A   Overcast
8:15 PM 53.6 °F 50.0 °F 88% 30.14 in 7.0 mi NW 3.5 mph - 0.01 in   Light Drizzle
8:35 PM 53.6 °F 50.0 °F 88% 30.13 in 5.0 mi Calm Calm - 0.05 in Rain Rain
8:55 PM 51.8 °F 50.0 °F 94% 30.12 in 7.0 mi Calm Calm - 0.08 in Rain Rain
9:15 PM 51.8 °F 50.0 °F 94% 30.13 in 10.0 mi Calm Calm - N/A Rain Rain
9:35 PM 51.8 °F 48.2 °F 88% 30.14 in 7.0 mi NW 3.5 mph - 0.01 in   Drizzle
9:55 PM 51.8 °F 48.2 °F 88% 30.14 in 10.0 mi Calm Calm - 0.01 in Rain Rain
10:15 PM 51.8 °F 48.2 °F 88% 30.14 in 5.0 mi North 4.6 mph - 0.03 in Rain Rain
10:35 PM 51.8 °F 48.2 °F 88% 30.15 in 7.0 mi Calm Calm - 0.04 in   Drizzle
10:55 PM 51.8 °F 46.4 °F 82% 30.16 in 10.0 mi Calm Calm - 0.05 in   Drizzle
11:15 PM 51.8 °F 46.4 °F 82% 30.16 in 10.0 mi Calm Calm - N/A   Drizzle
11:35 PM 50.0 °F 46.4 °F 87% 30.15 in 7.0 mi Calm Calm - N/A   Drizzle
11:55 PM 50.0 °F 46.4 °F 87% 30.14 in 10.0 mi NNW 5.8 mph - 0.01 in Rain Light Rain